www.pogodaiklimat.ru

Погода и климат >> Архив погоды >> Индия >> Керала >> Кожикоде


ПОГОДА в Кожикоде

  • Прогноз погоды в Кожикоде
  • Монитор погоды в Кожикоде

АРХИВ ПОГОДЫ в Кожикоде

Время (UTC), дата Ветер
(напр.,м/с)
 
Видим.   Явления Облачность Т
(С)
Тd
(С)
f
(%)
Тe
(С)
Тes
(С)
Комфортность P
(гПа)
Po
(гПа)
Тmin
(С)
Tmax
(С)
R
(мм)
R24
(мм)
S
(см)
15 16.05 штиль 0 4000 м 3/3 600 м
[Sc diur, vesp]
+30.0 +26.1 80 +45 +45 опасность
перегрева
1010.6 1010.0
18 16.05 штиль 0 4000 м 3/1 600 м
[Sc diur, vesp Ci sp]
+30.0 +26.4 81 +46 +46 опасность
перегрева
1010.7 1010.1
21 16.05 штиль 0 4000 м 9/3 600 м
[Sc diur, vesp Ac As Ci sp]
+29.4 +26.0 82 +44 +44 опасность
перегрева
1009.5 1008.9
00 17.05 штиль 0 4000 м 8/3 600 м
[Sc diur, vesp Ac trans Ci sp]
+28.0 +26.6 92 +43 +43 опасность
перегрева
1009.5 1008.9
03 17.05 штиль 0 10 км 9/4 600 м
[Sc diur, vesp Ac As Ci sp]
+30.0 +25.8 78 +45 +48 опасность
перегрева
1011.6 1011.0 +28.4 +36.5
06 17.05 З 1 10 км 4/4 600 м
[Sc diur, vesp]
+34.0 +27.1 67 +52 +66 опасность
перегрева
1011.6 1011.0
09 17.05 ЮЗ 2 10 км 1/1 600 м
[Sc diur, vesp]
+35.0 +27.3 64 +53 +69 опасность
перегрева
1008.9 1008.3
12 17.05 СЗ 2 10 км 6/3 600 м
[Sc diur, vesp Ac trans]
+31.6 +27.2 78 +50 +51 опасность
перегрева
1008.0 1007.4 +35.8
15 17.05 СВ 2 4000 м 9/3 600 м
[Sc diur, vesp Ac trans Ci sp]
+30.2 +26.6 81 +47 +47 опасность
перегрева
1011.5 1010.9
18 17.05 штиль 0 4000 м 9/3 600 м
[Cu Sc Ac As Ci sp]
+28.0 +22.4 72 +37 +37 очень
душно
1010.6 1010.0
21 17.05 штиль 0 4000 м 6/3 600 м
[Cu Sc Ac trans]
+27.6 +22.0 72 +36 +36 очень
душно
1008.8 1008.2
00 18.05 штиль 0 4000 м 6/3 600 м
[Cu Sc Ac trans]
+27.4 +24.2 83 +38 +38 очень
душно
1008.7 1008.1
03 18.05 штиль 0 10 км 4/1 600 м
[Sc diur, vesp Ac trans]
+29.0 +25.2 80 +42 +48 опасность
перегрева
1010.1 1009.5 +27.0 +35.8
06 18.05 штиль 0 10 км 3/3 600 м
[Sc diur, vesp]
+34.6 +26.6 63 +52 +71 опасность
перегрева
1009.9 1009.3
09 18.05 ЮЗ 1 10 км 1/1 600 м
[Cu Sc]
+34.6 +26.3 62 +51 +68 опасность
перегрева
1007.6 1007.0
12 18.05 штиль 0 10 км 1/1 600 м
[Sc diur, vesp]
+32.8 +27.3 73 +52 +54 опасность
перегрева
1007.3 1006.7 +36.0
15 18.05 штиль 0 4000 м {гроза, дождь} 10/4 600 м
[Sc diur, vesp Ac As Ci sp]
+28.6 +22.8 71 +38 +38 очень
душно
1009.0 1008.4 5
18 18.05 штиль 0 4000 м {гроза, дождь} 4/3 600 м
[Sc diur, vesp Ci sp]
+28.0 +26.6 92 +43 +43 опасность
перегрева
1009.7 1009.1 5
21 18.05 штиль 0 4000 м 6/3 600 м
[Sc diur, vesp Ac trans Ci sp]
+26.6 +24.3 87 +37 +37 очень
душно
1009.1 1008.5 5
00 19.05 штиль 0 4000 м 5/3 600 м
[Sc diur, vesp Ac trans Ci sp]
+26.0 +24.0 89 +36 +36 очень
душно
1008.3 1007.7 5
03 19.05 штиль 0 10 км 3/1 600 м
[Sc diur, vesp Ci sp]
+28.6 +25.5 83 +42 +49 опасность
перегрева
1009.7 1009.1 +25.6 +36.0 5
06 19.05 З 1 10 км ясно +33.8 +26.9 67 +51 +75 опасность
перегрева
1009.8 1009.2
09 19.05 З 1 10 км ясно +35.0 +28.2 68 +56 +75 опасность
перегрева
1007.7 1007.1
12 19.05 штиль 0 10 км 6/4 600 м
[Sc diur, vesp Ac trans]
+33.0 +27.8 74 +53 +54 опасность
перегрева
1007.0 1006.4 +35.8
15 19.05 штиль 0 4000 м 6/3 600 м
[Sc diur, vesp Ac trans Ci sp]
+31.0 +27.7 83 +51 +51 опасность
перегрева
1009.0 1008.4
18 19.05 штиль 0 4000 м 6/3 600 м
[Sc diur, vesp Ac trans Ci sp]
+29.6 +26.8 85 +46 +46 опасность
перегрева
1010.4 1009.8
21 19.05 штиль 0 4000 м 4/1 600 м
[Sc diur, vesp Ac trans Ci sp]
+29.4 +26.9 86 +46 +46 опасность
перегрева
1009.0 1008.4
00 20.05 штиль 0 4000 м 8/3 600 м
[Sc diur, vesp Ac As Ci sp]
+28.8 +26.9 89 +45 +45 опасность
перегрева
1008.6 1008.0
03 20.05 штиль 0 10 км 4/4 600 м
[Sc diur, vesp]
+30.4 +27.1 83 +48 +53 опасность
перегрева
1011.2 1010.6 +28.2 +35.8
06 20.05 штиль 0 10 км 3/3 600 м
[Sc diur, vesp]
+35.2 +27.9 66 +56 +75 опасность
перегрева
1010.6 1010.0
09 20.05 З 1 10 км 3/3 600 м
[Sc diur, vesp]
+35.4 +27.8 65 +56 +69 опасность
перегрева
1008.0 1007.4
12 20.05 З 1 10 км 4/1 600 м
[Sc diur, vesp Ac trans]
+32.0 +25.5 69 +47 +48 опасность
перегрева
1006.9 1006.3 +35.6
15 20.05 штиль 0 4000 м 5/1 600 м
[Sc diur, vesp Ac trans]
+30.0 +26.4 81 +46 +46 опасность
перегрева
1008.6 1008.0
18 20.05 штиль 0 4000 м 5/1 600 м
[Sc diur, vesp Ac trans]
+29.6 +27.1 86 +47 +47 опасность
перегрева
1009.5 1008.9
21 20.05 штиль 0 4000 м 4/1 600 м
[Sc diur, vesp Ac trans]
+28.6 +25.2 82 +42 +42 опасность
перегрева
1008.4 1007.8
00 21.05 штиль 0 4000 м 8/3 600 м
[Cu Sc Ac trans]
+28.4 +26.2 88 +43 +43 опасность
перегрева
1008.9 1008.3
03 21.05 штиль 0 10 км 1/1 600 м
[Sc diur, vesp]
+30.0 +26.7 83 +47 +55 опасность
перегрева
1010.5 1009.9 +27.4 +35.6
06 21.05 ЮЗ 1 10 км 1/1 <50 м
[]
+35.4 +27.5 64 +55 +76 опасность
перегрева
1010.6 1010.0
09 21.05 штиль 0 10 км 4/4 600 м
[Cb calv]
+34.6 +27.5 67 +54 +67 опасность
перегрева
1009.4 1008.8
12 21.05 З 2 10 км 9/3 600 м
[Cu Sc Ac trans Ci sp]
+33.0 +27.2 72 +52 +53 опасность
перегрева
1008.3 1007.7 +36.4
15 21.05 штиль 0 4000 м 3/1 600 м
[Sc diur, vesp Ac trans]
+30.6 +27.0 81 +48 +48 опасность
перегрева
1009.6 1009.0
18 21.05 штиль 0 4000 м 4/1 600 м
[Sc diur, vesp Ac trans Ci sp]
+30.2 +26.9 83 +47 +47 опасность
перегрева
1009.7 1009.1
21 21.05 штиль 0 4000 м 3/1 600 м
[Sc diur, vesp Ac trans]
+29.0 +26.2 85 +44 +44 опасность
перегрева
1008.6 1008.0
00 22.05 штиль 0 4000 м ясно +28.0 +25.7 87 +41 +41 опасность
перегрева
1008.2 1007.6
03 22.05 штиль 0 10 км 4/3 600 м
[Sc diur, vesp Ci sp]
+30.0 +25.8 78 +45 +50 опасность
перегрева
1009.5 1008.9 +27.7 +36.4
06 22.05 штиль 0 10 км 3/1 600 м
[Sc diur, vesp Ci sp]
+34.6 +26.0 61 +50 +74 опасность
перегрева
1010.2 1009.6
09 22.05 З 2 10 км 3/1 600 м
[Sc diur, vesp Ci fib]
+34.8 +26.8 63 +52 +67 опасность
перегрева
1007.4 1006.8
12 22.05 СЗ 2 10 км 3/1 600 м
[Sc diur, vesp Ci sp]
+32.8 +27.0 72 +51 +53 опасность
перегрева
1006.4 1005.8 +36.2
15 22.05 З 2 4000 м 5/3 600 м
[Sc diur, vesp Ac trans]
+30.8 +26.9 80 +48 +48 опасность
перегрева
1007.9 1007.3
18 22.05 штиль 0 4000 м 8/3 600 м
[Sc diur, vesp Ac trans]
+30.0 +26.9 84 +47 +47 опасность
перегрева
1009.2 1008.6
21 22.05 штиль 0 4000 м 6/3 600 м
[Sc diur, vesp Ac trans]
+28.8 +25.1 80 +42 +42 опасность
перегрева
1007.4 1006.8
00 23.05 штиль 0 4000 м 5/3 600 м
[Sc diur, vesp Ac trans]
+28.4 +26.4 89 +43 +43 опасность
перегрева
1007.8 1007.2
03 23.05 штиль 0 10 км 5/3 600 м
[Sc diur, vesp Ac trans]
+30.3 +27.6 86 +49 +54 опасность
перегрева
1010.5 1009.9 +28.2 +36.2
06 23.05 штиль 0 10 км 4/3 600 м
[Sc diur, vesp Ci sp]
+34.6 +27.2 66 +53 +72 опасность
перегрева
1009.8 1009.2
09 23.05 штиль 0 10 км 6/3 600 м
[Sc diur, vesp Ac trans Ci sp]
+36.0 +27.8 63 +56 +68 опасность
перегрева
1008.1 1007.5
12 23.05 штиль 0 10 км 9/4 600 м
[Sc diur, vesp Ac As Ci sp]
+32.4 +27.8 77 +53 +53 опасность
перегрева
1006.8 1006.2 +37.1

 

Местоположение метеостанции Кожикоде (Керала, Индия): широта 11.25 долгота 75.78 высота над уровнем моря 5 м.

В архиве по умолчанию представлена погода в Кожикоде за последнюю неделю. Архивные данные за месяц целиком и за предыдущие месяцы, начиная с января 2011 года, Вы можете получить, выбрав интересующий диапазон дат из раскрывающегося списка и нажав кнопку "Ввод!".


*Определитесь, кто Вы:
робот инопланетянин человек

Внимание! Время в таблицах - всемирное. Для получения местного времени необходимо прибавить поправку, которая равна 5.5 ч.

Смотрите также архив погоды в соседних городах и на ближайших метеорологических станциях:

Погода в Карипере (Керала, Индия) (23 км)
Погода в Каннаноре (Керала, Индия) (81 км)
Погода в Триссуре (Керала, Индия) (94 км)
Погода в Удагамандаламе (Тамилнад, Индия) (105 км)
Погода в Палаккаде (Керала, Индия) (109 км)
Погода в Кунуре (Тамилнад, Индия) (112 км)
Погода в Мадикери (Карнатака, Индия) (130 км)
Погода в Коти (Керала, Индия) (140 км)
Погода в Коимбатуре (Тамилнад, Индия) (141 км)
Погода в Чамраджнагаре (Карнатака, Индия) (146 км)

Пояснения к столбцам:

Ветер - указаны скорость ветра в м/с - средняя за 10 мин, порывы в срок и между сроками (в фигурных скобках) и направление, откуда дует ветер: С - северный, СВ - северо-восточный, В - восточный, ЮВ - юго-восточный, Ю - южный, ЮЗ - юго-западный, З - западный, СЗ - северо-западный.
Видимость - горизонтальная дальность видимости в метрах или километрах. При видимости от 1 до 10 км при отсутствии осадков обычно наблюдается дымка, при ухудшении видимости до 1 км и менее - туман. В сухую погоду видимость может ухудшаться дымом, пылью или мглою.
Явления - указаны атмосферные явления, наблюдавшиеся в срок или в последний час перед сроком; фигурными скобками обозначены явления, наблюдавшиеся между сроками (за 1-3 часа до срока); квадратными скобками обозначены град или гололедные отложения с указанием их диаметра в мм.
Облачность - указаны через наклонную черту общая и нижняя облачность в баллах и высота нижней границы облаков в метрах; квадратными скобками обозначены формы облаков: Ci - перистые, Cs - перисто-слоистые, Cc - перисто-кучевые, Ac - высококучевые, As - высокослоистые, Sc - слоисто-кучевые, Ns - слоисто-дождевые, Cu - кучевые, Cb - кучево-дождевые. Подробнее классификацию облаков см. в Атласе облаков (PDF).
T - Температура воздуха - температура, измеренная на высоте 2 м над землей.
Td - Температура точки росы - температура, при понижении до которой содержащийся в воздухе водяной пар достигнет насыщения.
f - Относительная влажность воздуха - влажноcть воздуха, измеренная на высоте 2 м над землей.
Te - Эффективная температура - температура, которую ощущает одетый по сезону человек в тени. Характеристика душности погоды. При расчете учитывается влияние влажности воздуха и скорости ветра на теплоощущения человека.
Tes - Эффективная температура на солнце - температура, которую ощущает человек, с поправкой на солнечный нагрев. Характеристика знойности погоды. Зависит от высоты солнца над горизонтом, облачности и скорости ветра. Ночью, в пасмурную погоду, а также при ветре 12 м/с и более поправка равна нулю.
P - Атмосферное давление - приведенное к уровню моря атмосферное давление.
Po - Атмосферное давление - измеренное на уровне метеостанции атмосферное давление.
Tmin - Минимальная температура - минимум температуры воздуха на высоте 2 м над землей.
Tmax - Максимальная температура - максимум температуры воздуха на высоте 2 м над землей.
R - Количество осадков - Количество выпавших осадков за период времени, мм. При наведении курсора мыши на число - период времени, за который выпало указанное количество осадков.
R24 - Количество осадков - Количество выпавших осадков за 24 часа, мм.
S - Снежный покров - Высота снежного покрова, см. При наведении курсора мыши на число - состояние снежного покрова и степень покрытия местности в баллах.